Hourly Weather Priokskaya

Today, 2 July, Thursday

Time Temperature Precipitation Wind Pressure Humidity
00:00 +14°C° 0 mm 3 mps 742 mmHg 94%
01:00 +15°C° 0 mm 2 mps 742 mmHg 95%
02:00 +14°C° 0 mm 2 mps 742 mmHg 96%
03:00 +15°C° 0 mm 2 mps 742 mmHg 94%
04:00 +16°C° 0 mm 2 mps 742 mmHg 93%
05:00 +16°C° 0 mm 2 mps 743 mmHg 91%
06:00 +18°C° 0 mm 2 mps 743 mmHg 84%
07:00 +20°C° 0 mm 2 mps 743 mmHg 78%
08:00 +23°C° 0 mm 2 mps 743 mmHg 71%
09:00 +24°C° 0.1 mm 3 mps 743 mmHg 69%
10:00 +24°C° 0.1 mm 3 mps 743 mmHg 67%
11:00 +25°C° 0.1 mm 4 mps 743 mmHg 65%
12:00 +26°C° 0.2 mm 4 mps 743 mmHg 64%
13:00 +26°C° 0.2 mm 4 mps 743 mmHg 64%
14:00 +26°C° 0.2 mm 4 mps 743 mmHg 63%
15:00 +26°C° 0.2 mm 4 mps 743 mmHg 68%
16:00 +25°C° 0.2 mm 3 mps 742 mmHg 72%
17:00 +25°C° 0.2 mm 3 mps 742 mmHg 77%
18:00 +24°C° 0.2 mm 3 mps 743 mmHg 82%
19:00 +21°C° 0.2 mm 3 mps 743 mmHg 86%
20:00 +20°C° 0.2 mm 2 mps 743 mmHg 90%
21:00 +20°C° 0 mm 3 mps 743 mmHg 91%
22:00 +20°C° 0 mm 3 mps 742 mmHg 92%
23:00 +20°C° 0 mm 3 mps 742 mmHg 93%

Tomorrow, 3 July, Friday

Time Temperature Precipitation Wind Pressure Humidity
00:00 +19°C° 0 mm 3 mps 742 mmHg 94%
01:00 +19°C° 0 mm 3 mps 742 mmHg 95%
02:00 +19°C° 0 mm 3 mps 743 mmHg 96%
03:00 +19°C° 0 mm 3 mps 743 mmHg 96%
04:00 +19°C° 0 mm 3 mps 742 mmHg 96%
05:00 +20°C° 0 mm 3 mps 742 mmHg 95%
06:00 +21°C° 0 mm 3 mps 743 mmHg 91%
07:00 +22°C° 0 mm 3 mps 743 mmHg 86%
08:00 +25°C° 0 mm 3 mps 743 mmHg 82%
09:00 +25°C° 0.6 mm 3 mps 743 mmHg 79%
10:00 +26°C° 0.6 mm 3 mps 744 mmHg 76%
11:00 +27°C° 0.6 mm 3 mps 744 mmHg 73%
12:00 +27°C° 0.3 mm 3 mps 744 mmHg 72%
13:00 +27°C° 0.3 mm 3 mps 744 mmHg 72%
14:00 +28°C° 0.3 mm 3 mps 744 mmHg 71%
15:00 +27°C° 0.3 mm 2 mps 744 mmHg 73%
16:00 +26°C° 0.3 mm 2 mps 744 mmHg 76%
17:00 +26°C° 0.3 mm 1 mps 744 mmHg 78%
18:00 +24°C° 0.2 mm 1 mps 744 mmHg 81%
19:00 +23°C° 0.2 mm 1 mps 744 mmHg 84%
20:00 +22°C° 0.2 mm 1 mps 744 mmHg 86%
21:00 +21°C° 0.2 mm 1 mps 744 mmHg 88%
22:00 +21°C° 0.2 mm 1 mps 744 mmHg 90%
23:00 +20°C° 0.2 mm 1 mps 744 mmHg 91%

Day after tomorrow, 4 July, Saturday

Time Temperature Precipitation Wind Pressure Humidity
00:00 +19°C° 0 mm 2 mps 744 mmHg 93%
01:00 +19°C° 0 mm 2 mps 743 mmHg 94%
02:00 +19°C° 0 mm 2 mps 743 mmHg 95%
03:00 +19°C° 0 mm 2 mps 743 mmHg 95%
04:00 +20°C° 0 mm 3 mps 743 mmHg 94%
05:00 +20°C° 0 mm 3 mps 743 mmHg 93%
06:00 +21°C° 0.2 mm 3 mps 743 mmHg 90%
07:00 +23°C° 0.2 mm 4 mps 743 mmHg 87%
08:00 +25°C° 0.2 mm 4 mps 743 mmHg 84%
09:00 +25°C° 0.6 mm 4 mps 743 mmHg 83%
10:00 +25°C° 0.6 mm 4 mps 743 mmHg 82%
11:00 +25°C° 0.6 mm 4 mps 743 mmHg 82%
12:00 +26°C° 0.5 mm 4 mps 743 mmHg 79%
13:00 +26°C° 0.5 mm 4 mps 743 mmHg 77%
14:00 +27°C° 0.5 mm 4 mps 743 mmHg 74%
15:00 +26°C° 0.2 mm 3 mps 743 mmHg 77%
16:00 +26°C° 0.2 mm 3 mps 743 mmHg 79%
17:00 +25°C° 0.2 mm 2 mps 743 mmHg 82%
18:00 +24°C° 0.1 mm 2 mps 743 mmHg 85%
19:00 +23°C° 0.1 mm 2 mps 743 mmHg 88%
20:00 +20°C° 0.1 mm 2 mps 743 mmHg 92%
21:00 +20°C° 0.1 mm 2 mps 743 mmHg 93%
22:00 +20°C° 0.1 mm 2 mps 743 mmHg 94%
23:00 +19°C° 0.1 mm 2 mps 743 mmHg 95%

5 July, Sunday

Time Temperature Precipitation Wind Pressure Humidity
00:00 +20°C° 0.5 mm 1 mps 743 mmHg 96%
01:00 +20°C° 0.5 mm 1 mps 743 mmHg 97%
02:00 +20°C° 0.5 mm 1 mps 743 mmHg 98%
03:00 +20°C° 0.2 mm 1 mps 743 mmHg 97%
04:00 +20°C° 0.2 mm 1 mps 743 mmHg 97%
05:00 +21°C° 0.2 mm 1 mps 744 mmHg 96%
06:00 +22°C° 0.2 mm 1 mps 744 mmHg 91%
07:00 +23°C° 0.2 mm 1 mps 744 mmHg 85%
08:00 +24°C° 0.2 mm 1 mps 744 mmHg 80%
09:00 +25°C° 0.2 mm 1 mps 744 mmHg 73%
10:00 +27°C° 0.2 mm 1 mps 744 mmHg 67%
11:00 +28°C° 0.2 mm 1 mps 744 mmHg 60%
12:00 +28°C° 0 mm 1 mps 744 mmHg 58%
13:00 +28°C° 0 mm 1 mps 744 mmHg 57%
14:00 +26°C° 0 mm 0 mps 743 mmHg 55%
15:00 +28°C° 0.1 mm 1 mps 743 mmHg 60%
16:00 +28°C° 0.1 mm 1 mps 743 mmHg 64%
17:00 +27°C° 0.1 mm 1 mps 743 mmHg 69%
18:00 +25°C° 0.1 mm 1 mps 743 mmHg 74%
19:00 +24°C° 0.1 mm 1 mps 743 mmHg 79%
20:00 +20°C° 0.1 mm 0 mps 742 mmHg 83%
21:00 +20°C° 0 mm 0 mps 742 mmHg 85%
22:00 +19°C° 0 mm 0 mps 742 mmHg 86%
23:00 +20°C° 0 mm 1 mps 742 mmHg 87%

6 July, Monday

Time Temperature Precipitation Wind Pressure Humidity
00:00 +20°C° 0.1 mm 1 mps 742 mmHg 88%
01:00 +20°C° 0.1 mm 1 mps 742 mmHg 89%
02:00 +19°C° 0.1 mm 1 mps 742 mmHg 89%
03:00 +19°C° 0 mm 1 mps 742 mmHg 89%
04:00 +20°C° 0 mm 1 mps 742 mmHg 88%
05:00 +20°C° 0 mm 1 mps 742 mmHg 87%
06:00 +21°C° 0 mm 1 mps 742 mmHg 81%
07:00 +23°C° 0 mm 1 mps 742 mmHg 75%
08:00 +24°C° 0 mm 2 mps 742 mmHg 68%
09:00 +25°C° 0 mm 2 mps 742 mmHg 65%
10:00 +26°C° 0 mm 3 mps 742 mmHg 61%
11:00 +27°C° 0 mm 3 mps 742 mmHg 57%
12:00 +28°C° 0 mm 4 mps 741 mmHg 56%
13:00 +28°C° 0 mm 4 mps 741 mmHg 55%
14:00 +28°C° 0 mm 4 mps 741 mmHg 54%
15:00 +28°C° 0 mm 4 mps 741 mmHg 58%
16:00 +27°C° 0 mm 4 mps 741 mmHg 63%
17:00 +27°C° 0 mm 3 mps 741 mmHg 67%
18:00 +25°C° 0 mm 3 mps 741 mmHg 73%
19:00 +24°C° 0 mm 3 mps 741 mmHg 78%
20:00 +21°C° 0 mm 2 mps 742 mmHg 83%
21:00 +21°C° 0 mm 2 mps 742 mmHg 86%
22:00 +20°C° 0 mm 2 mps 742 mmHg 88%
23:00 +19°C° 0 mm 2 mps 742 mmHg 91%

7 July, Tuesday

Time Temperature Precipitation Wind Pressure Humidity
00:00 +19°C° 0 mm 2 mps 742 mmHg 92%
01:00 +19°C° 0 mm 2 mps 742 mmHg 93%
02:00 +19°C° 0 mm 2 mps 742 mmHg 95%
03:00 +20°C° 0 mm 1 mps 742 mmHg 94%
04:00 +21°C° 0 mm 1 mps 743 mmHg 92%
05:00 +21°C° 0 mm 1 mps 743 mmHg 91%
06:00 +23°C° 0 mm 1 mps 743 mmHg 86%
07:00 +24°C° 0 mm 2 mps 743 mmHg 80%
08:00 +26°C° 0 mm 2 mps 743 mmHg 74%
09:00 +27°C° 0 mm 3 mps 742 mmHg 72%
10:00 +27°C° 0 mm 3 mps 742 mmHg 69%
11:00 +28°C° 0 mm 4 mps 742 mmHg 67%
12:00 +28°C° 0.4 mm 4 mps 742 mmHg 69%
13:00 +28°C° 0.4 mm 3 mps 742 mmHg 71%
14:00 +28°C° 0.4 mm 3 mps 741 mmHg 73%
15:00 +28°C° 0.4 mm 3 mps 741 mmHg 75%
16:00 +28°C° 0.4 mm 2 mps 741 mmHg 76%
17:00 +27°C° 0.4 mm 2 mps 741 mmHg 78%
18:00 +26°C° 0.2 mm 2 mps 741 mmHg 81%
19:00 +24°C° 0.2 mm 1 mps 741 mmHg 84%
20:00 +23°C° 0.2 mm 1 mps 741 mmHg 88%
21:00 +22°C° 0 mm 1 mps 741 mmHg 89%
22:00 +21°C° 0 mm 1 mps 741 mmHg 91%
23:00 +21°C° 0 mm 1 mps 741 mmHg 93%
Show more